Simultaneous Nadir Overpasses (SNOs) Predictions

Prediction of SNOs between FY3D and AQUA Satellite Orbit:

Table of predicted SNOs for the next 14.0 days since TLE Epoch: 11/6/2021
Index Date (FY3D) Time (FY3D) Lat,Lon (FY3D) SZA (FY3D ) Date (AQUA) Time (AQUA) Lat,Lon (AQUA) SZA (AQUA ) Distance(km) Time Diff (sec)
1 11/07/2021 07:48:05 -78.65,-141.57 84.35 11/07/2021 07:49:19 -78.91,-140.54 84.20 36.23 74
2 11/07/2021 08:35:27 68.96, 53.10 85.35 11/07/2021 08:35:29 68.96, 53.12 85.34 0.63 2
3 11/07/2021 09:24:49 -64.57,-134.53 98.75 11/07/2021 09:23:36 -64.58,-134.57 98.77 1.95 73
4 11/10/2021 00:51:56 69.67, 168.05 86.79 11/10/2021 00:52:11 69.67, 168.07 86.79 0.73 15
5 11/10/2021 01:41:39 -66.44, -20.50 96.26 11/10/2021 01:40:38 -66.43, -20.46 96.28 1.81 61
6 11/12/2021 17:08:21 70.11, -76.66 87.94 11/12/2021 17:08:49 70.11, -76.67 87.94 0.48 28
7 11/12/2021 17:58:04 -66.88, 94.96 95.12 11/12/2021 17:57:16 -66.88, 94.95 95.13 0.38 48
8 11/15/2021 09:24:56 71.07, 37.72 89.57 11/15/2021 09:25:36 71.06, 37.78 89.56 2.35 40
9 11/15/2021 10:14:42 -68.03,-150.47 93.35 11/15/2021 10:14:06 -68.02,-150.44 93.36 1.28 36
10 11/18/2021 01:41:13 71.09, 153.64 90.25 11/18/2021 01:42:06 71.10, 153.60 90.26 1.66 53



Historial Predications of SNOs between FY3D and AQUA
